Date String (YYYY-MM-DD hh:mm:ss) UTC,Instrument flags,absolute air pressure of the measurement (hPa),sample flow rate (lpm),inlet stack bypass flow (lpm),air temperature of the measurement (°C),ambient temperature measured by the external sensor (°C),aerosol sample conditioner tube jacket temperature (°C),OPC LED temperature (°C),internal box temperature (°C),relative humidity of the measurement (%),span deviation,mass concentration of particles derived from Lorenz-Mie calculation of OPC scattering (μg/m³),mass concentration of particles derived from Lorenz-Mie calculation of OPC scattering (μg/m³),mass concentration of particles derived from Lorenz-Mie calculation of OPC scattering (μg/m³)
DateTimeUTC,F1_M11,P_M11,Q1_M11,Q2_M11,T1_M11,T2_M11,T3_M11,T4_M11,T5_M11,U1_M11,ZSPAN_M11,X0_M11,X2_M11,X1_M11
2023-07-14 23:00:00,SystemResetWarning,0832.7,5.01,000.00,028.8,025.0,000.0,037.0,030.1,33.9,-000.4,0021.17,0007.96,0006.39
2023-07-14 23:01:00,SystemResetWarning,0832.6,5.01,000.00,028.7,025.4,000.0,037.1,030.1,33.0,-000.8,0022.01,0007.94,0006.38
2023-07-14 23:02:00,SystemResetWarning,0832.6,4.99,000.00,028.7,025.9,000.0,037.1,030.2,33.7,-001.0,0020.64,0007.92,0006.38
2023-07-14 23:03:00,SystemResetWarning,0832.6,5.00,000.00,028.8,026.4,000.0,037.2,030.3,33.8,-001.0,0020.50,0007.98,0006.40
2023-07-14 23:04:00,SystemResetWarning,0832.7,5.01,000.00,028.8,026.8,000.0,037.2,030.5,34.1,-000.9,0020.73,0008.04,0006.40
2023-07-14 23:05:00,SystemResetWarning,0832.7,4.97,000.00,028.9,027.2,000.0,037.2,030.6,34.8,-001.0,0021.11,0008.05,0006.43
2023-07-14 23:06:00,SystemResetWarning,0832.7,5.04,000.00,029.0,027.5,000.0,037.2,030.7,34.8,-001.1,0021.66,0008.10,0006.44
2023-07-14 23:07:00,SystemResetWarning,0832.7,4.96,000.00,029.2,027.7,000.0,037.3,030.8,33.4,-001.3,0021.54,0008.11,0006.44
2023-07-14 23:08:00,SystemResetWarning,0832.7,5.01,000.00,029.3,026.9,000.0,037.2,030.8,32.1,-001.8,0021.67,0008.06,0006.44
2023-07-14 23:09:00,SystemResetWarning,0832.7,5.00,000.00,029.3,025.4,000.0,037.1,030.4,32.1,-001.7,0022.61,0008.12,0006.41
2023-07-14 23:10:00,SystemResetWarning,0832.6,5.00,000.00,029.2,024.9,000.0,037.1,030.3,32.5,-001.7,0022.89,0008.15,0006.41
2023-07-14 23:11:00,SystemResetWarning,0832.7,5.02,000.00,029.2,025.2,000.0,037.1,030.2,33.3,-001.7,0021.70,0008.09,0006.40
2023-07-14 23:12:00,SystemResetWarning,0832.6,5.00,000.00,029.1,025.6,000.0,037.2,030.2,32.3,-001.6,0019.97,0008.09,0006.40
2023-07-14 23:13:00,SystemResetWarning,0832.6,4.99,000.00,029.1,026.1,000.0,037.3,030.3,32.5,-001.4,0019.50,0008.09,0006.39
2023-07-14 23:14:00,SystemResetWarning,0832.6,5.00,000.00,029.2,026.6,000.0,037.3,030.4,32.0,-001.5,0019.72,0008.04,0006.37
2023-07-14 23:15:00,SystemResetWarning,0832.6,5.00,000.00,029.2,027.0,000.0,037.3,030.6,32.6,-001.5,0020.62,0007.92,0006.36
2023-07-14 23:16:00,SystemResetWarning,0832.7,5.01,000.00,029.3,027.3,000.0,037.4,030.7,32.1,-001.6,0021.43,0007.88,0006.34
2023-07-14 23:17:00,SystemResetWarning,0832.7,5.00,000.00,029.3,027.6,000.0,037.4,030.8,32.5,-001.7,0022.17,0007.82,0006.32
2023-07-14 23:18:00,SystemResetWarning,0832.7,4.98,000.00,029.4,027.7,000.0,037.4,030.8,32.2,-001.4,0021.95,0007.79,0006.30
2023-07-14 23:19:00,SystemResetWarning,0832.8,5.00,000.00,029.4,026.3,000.0,037.4,030.7,31.5,-001.6,0022.07,0007.79,0006.30
2023-07-14 23:20:00,SystemResetWarning,0832.7,5.00,000.00,029.3,025.1,000.0,037.3,030.4,32.2,-001.8,0022.29,0007.79,0006.30
2023-07-14 23:21:00,SystemResetWarning,0832.7,5.02,000.00,029.2,024.9,000.0,037.2,030.2,32.7,-001.7,0021.55,0007.73,0006.29
2023-07-14 23:22:00,SystemResetWarning,0832.8,5.01,000.00,029.1,025.2,000.0,037.3,030.2,32.9,-001.2,0024.10,0007.78,0006.28
2023-07-14 23:23:00,SystemResetWarning,0832.8,5.00,000.00,029.1,025.7,000.0,037.3,030.2,32.3,-001.0,0024.85,0007.79,0006.29
2023-07-14 23:24:00,SystemResetWarning,0833.2,5.00,000.00,029.1,026.2,000.0,037.4,030.4,31.9,-000.8,0025.66,0007.82,0006.30
2023-07-14 23:25:00,SystemResetWarning,0832.9,5.00,000.00,029.1,026.7,000.0,037.4,030.5,32.2,-000.8,0026.10,0007.87,0006.29
2023-07-14 23:26:00,SystemResetWarning,0832.8,5.00,000.00,029.2,027.1,000.0,037.4,030.6,32.0,-001.0,0026.63,0007.87,0006.28
2023-07-14 23:27:00,SystemResetWarning,0832.7,4.99,000.00,029.2,027.4,000.0,037.4,030.7,31.6,-000.3,0025.31,0007.86,0006.27
2023-07-14 23:28:00,SystemResetWarning,0832.7,4.99,000.00,029.2,027.7,000.0,037.5,030.8,32.1,0000.0,0024.33,0007.88,0006.28
2023-07-14 23:29:00,SystemResetWarning,0832.7,5.02,000.00,029.3,027.4,000.0,037.4,030.8,31.7,0000.0,0024.25,0007.90,0006.28
2023-07-14 23:30:00,SystemResetWarning,0832.6,4.99,000.00,029.2,025.8,000.0,037.3,030.5,31.5,0000.0,0024.97,0007.92,0006.27
2023-07-14 23:31:00,SystemResetWarning,0832.6,5.00,000.00,029.2,025.0,000.0,037.2,030.3,31.5,-000.0,0024.87,0007.90,0006.27
2023-07-14 23:32:00,SystemResetWarning,0832.6,5.02,000.00,029.1,025.0,000.0,037.2,030.2,31.7,-000.8,0026.27,0007.93,0006.28
2023-07-14 23:33:00,SystemResetWarning,0832.6,5.00,000.00,029.0,025.4,000.0,037.3,030.2,32.6,-000.0,0023.84,0007.86,0006.27
2023-07-14 23:34:00,SystemResetWarning,0832.6,5.00,000.00,029.0,025.9,000.0,037.3,030.3,32.2,-000.4,0024.06,0007.86,0006.26
2023-07-14 23:35:00,SystemResetWarning,0832.6,5.00,000.00,029.0,026.4,000.0,037.3,030.4,32.3,-001.1,0023.25,0007.82,0006.26
2023-07-14 23:36:00,SystemResetWarning,0832.6,5.00,000.00,029.0,026.8,000.0,037.4,030.5,32.2,-000.9,0022.08,0007.76,0006.26
2023-07-14 23:37:00,SystemResetWarning,0832.6,5.00,000.00,029.1,027.2,000.0,037.4,030.6,32.3,-000.7,0021.64,0007.78,0006.27
2023-07-14 23:38:00,SystemResetWarning,0832.6,5.00,000.00,029.1,027.5,000.0,037.4,030.7,31.9,-000.7,0021.86,0007.80,0006.28
2023-07-14 23:39:00,SystemResetWarning,0832.6,5.00,000.00,029.2,027.8,000.0,037.4,030.8,31.8,-000.8,0021.76,0007.82,0006.29
2023-07-14 23:40:00,SystemResetWarning,0832.5,4.99,000.00,029.2,027.7,000.0,037.4,030.9,31.8,-000.7,0021.94,0007.78,0006.29
2023-07-14 23:41:00,SystemResetWarning,0832.5,4.99,000.00,029.2,026.2,000.0,037.3,030.6,32.5,-000.8,0022.56,0007.78,0006.31
2023-07-14 23:42:00,SystemResetWarning,0832.6,5.01,000.00,029.1,025.1,000.0,037.2,030.4,33.3,-000.7,0023.05,0007.82,0006.34
2023-07-14 23:43:00,SystemResetWarning,0832.6,5.01,000.00,029.0,025.0,000.0,037.2,030.2,32.5,-000.9,0021.40,0007.82,0006.35
2023-07-14 23:44:00,SystemResetWarning,0832.5,5.01,000.00,028.9,025.4,000.0,037.3,030.2,32.6,-001.1,0022.13,0007.85,0006.37
2023-07-14 23:45:00,SystemResetWarning,0832.5,4.99,000.00,028.9,025.8,000.0,037.3,030.3,32.6,-000.6,0021.24,0007.91,0006.39
2023-07-14 23:46:00,SystemResetWarning,0832.5,5.00,000.00,029.0,026.3,000.0,037.3,030.4,33.2,0000.1,0022.74,0007.93,0006.40
2023-07-14 23:47:00,SystemResetWarning,0832.5,5.00,000.00,029.0,026.8,000.0,037.3,030.5,32.9,0000.0,0023.32,0007.96,0006.40
2023-07-14 23:48:00,SystemResetWarning,0832.5,5.00,000.00,029.0,027.2,000.0,037.4,030.6,33.7,-000.3,0022.83,0008.02,0006.42
2023-07-14 23:49:00,SystemResetWarning,0832.5,5.00,000.00,029.1,027.5,000.0,037.4,030.7,33.8,-000.2,0022.11,0007.97,0006.44
2023-07-14 23:50:00,SystemResetWarning,0832.5,5.00,000.00,029.1,027.8,000.0,037.4,030.8,33.8,0000.6,0023.61,0007.93,0006.45
2023-07-14 23:51:00,SystemResetWarning,0832.5,4.98,000.00,029.2,027.2,000.0,037.4,030.8,33.5,0001.0,0024.57,0007.96,0006.45
2023-07-14 23:52:00,SystemResetWarning,0832.5,5.01,000.00,029.1,025.6,000.0,037.3,030.5,33.5,0001.2,0023.09,0007.97,0006.45
2023-07-14 23:53:00,SystemResetWarning,0832.5,5.01,000.00,029.0,024.9,000.0,037.2,030.4,33.6,0001.0,0022.08,0007.97,0006.44
2023-07-14 23:54:00,SystemResetWarning,0832.5,5.00,000.00,029.0,025.1,000.0,037.2,030.2,32.9,0001.3,0023.29,0007.99,0006.45
2023-07-14 23:55:00,SystemResetWarning,0832.5,4.99,000.00,028.9,025.5,000.0,037.2,030.2,32.7,0001.9,0022.79,0008.01,0006.46
2023-07-14 23:56:00,SystemResetWarning,0832.5,5.00,000.00,028.9,026.0,000.0,037.3,030.3,33.5,0001.9,0022.55,0007.97,0006.46
2023-07-14 23:57:00,SystemResetWarning,0832.5,5.00,000.00,028.9,026.5,000.0,037.3,030.4,33.2,0001.2,0021.40,0007.96,0006.45
2023-07-14 23:58:00,SystemResetWarning,0832.5,4.99,000.00,029.0,026.9,000.0,037.3,030.5,32.7,0001.6,0022.41,0007.93,0006.44
2023-07-14 23:59:00,SystemResetWarning,0832.6,5.00,000.00,029.0,027.3,000.0,037.3,030.7,32.9,0001.3,0022.30,0007.90,0006.43
